POPACS 2

Last updated on Wed Nov 05 2025 00:03:48 GMT+0000 (Coordinated Universal Time)

1 39269U 13055E 25308.29156262 .00032800 00000+0 61040-3 0 9990 2 39269 80.9985 39.9455 0455207 191.7603 167.2697 14.81334082629790
UTC large
Height (km)
Speed (km/s)
/
Latitude / Longitude
Inclination (degrees)
Orbital Period (minutes)
Azimuth
Elevation
Range (km)
Doppler Factor

Next 0 passes for location: London (51.5072 / 0.1276)

Sorry there are no passes over London.